GFSMW_con_mucape_060.txt.gz
CAPE
31 0 0 3 11 8 11 2 23 7 22 17 19 9 2 0 0 40 69 131 108 142 138 119 132 108 99 94 76 32 17 0 0 0 0 0 0 0 0 0 0 0 0
62 0 0 1 4 13 23 1 10 32 7 53 3 2 9 4 0 30 40 108 150 132 134 150 119 106 147 156 130 94 71 29 15 10 13 6 0 2 0 0 0 0 0
162 9 0 0 3 6 3 26 2 4 10 12 1 4 2 1 0 6 0 56 153 198 118 139 174 167 153 196 207 169 160 133 63 54 130 151 105 106 0 1 0 6 1
147 37 1 0 0 1 11 22 0 32 0 0 0 4 0 0 0 0 34 87 124 162 157 131 192 251 236 203 269 268 242 266 235 43 64 74 73 109 61 1 19 17 19
142 72 18 0 0 0 7 11 0 0 0 0 0 2 0 1 2 1 0 98 79 114 146 167 231 286 285 261 293 244 217 245 264 196 147 37 25 13 4 39 8 2 15
87 99 31 0 0 0 1 8 0 0 0 0 0 1 6 0 0 0 1 1 36 83 106 142 246 279 208 119 54 156 296 306 238 210 190 102 13 0 0 13 10 0 0
70 110 69 18 10 0 0 1 2 0 0 0 0 1 15 0 6 0 8 3 41 37 41 77 197 135 89 70 50 181 382 414 312 235 178 127 59 55 0 4 1 0 0
62 125 105 56 36 0 0 0 2 5 0 0 0 0 26 14 0 2 7 0 0 16 0 0 84 89 49 75 198 162 141 186 235 272 320 254 203 110 10 14 0 0 0
66 135 149 112 61 7 0 0 0 0 12 0 0 0 24 24 18 1 0 2 2 4 8 5 6 80 80 97 104 176 96 244 288 241 278 329 262 93 8 4 10 5 0
35 129 204 163 118 35 0 0 0 0 0 8 17 17 19 18 25 37 23 8 23 17 2 4 13 23 34 46 60 127 137 237 335 274 218 232 167 181 8 9 0 0 0
76 195 213 195 169 111 42 16 9 1 0 1 5 7 8 11 26 21 30 22 25 9 8 7 9 15 26 33 84 70 61 151 264 376 370 187 44 8 0 20 28 26 46
4 105 258 268 156 156 97 79 89 79 39 6 0 2 5 7 9 11 7 36 30 39 18 20 24 17 30 78 84 132 27 154 276 285 175 78 54 58 30 35 34 41 94
0 86 130 239 277 193 145 95 66 101 116 112 52 1 5 6 8 3 3 8 9 14 11 18 33 55 57 47 32 38 99 228 75 24 34 1 61 32 0 7 0 58 61
0 4 88 102 197 233 210 142 107 74 66 98 110 107 48 33 16 1 3 8 2 0 5 15 14 10 18 6 30 27 77 27 0 6 5 1 32 0 6 8 0 39 50
0 0 0 3 63 133 229 195 147 117 69 39 49 76 140 114 65 57 41 10 0 18 4 2 5 13 9 6 71 25 24 0 1 0 3 5 4 0 35 0 0 10 9
0 0 0 0 0 58 163 202 185 156 113 61 60 10 21 68 141 163 153 122 111 119 105 91 84 67 0 0 3 0 180 7 1 6 19 54 51 33 75 7 3 30 0
0 0 0 0 0 0 7 131 257 208 152 113 70 39 19 57 147 166 165 153 142 117 98 82 89 85 109 86 94 88 22 7 13 35 14 53 59 98 59 43 36 20 8
0 0 0 0 0 0 1 15 79 223 245 202 156 104 66 58 55 70 73 69 83 89 148 169 169 165 149 134 138 119 61 53 88 108 53 65 107 82 53 54 76 2 7
0 0 0 0 0 0 0 0 7 46 163 232 232 192 129 92 59 44 22 31 70 148 210 237 230 192 117 210 215 119 213 127 116 147 178 123 80 108 80 45 66 0 1
0 0 0 0 0 0 0 0 0 1 67 122 194 199 181 139 145 149 119 104 136 190 227 177 242 241 155 145 159 116 137 131 132 117 130 159 96 62 110 28 5 3 0
0 0 0 0 0 0 0 2 8 6 11 53 98 118 136 156 170 143 143 165 211 272 273 250 175 161 149 167 230 148 152 147 82 40 93 160 78 37 18 2 0 0 0
1 0 0 0 2 0 0 9 0 0 0 0 0 2 20 59 94 142 208 255 367 173 163 165 127 99 77 51 13 11 14 19 24 23 48 56 17 0 0 0 0 0 1
0 10 3 17 28 80 29 5 0 0 6 32 104 132 208 252 298 275 178 129 62 24 4 2 2 5 4 8 8 14 20 34 68 33 0 0 0 0 0 1 0 0 0
11 2 5 16 69 110 135 171 232 323 295 358 335 314 302 288 164 95 58 18 1 0 10 3 8 12 12 12 8 6 0 0 0 0 0 0 0 0 0 0 0 0 0
0 1 8 4 17 69 114 158 232 266 230 398 459 280 109 63 47 11 0 0 1 0 0 4 1 10 5 9 1 0 0 0 0 0 0 0 0 0 0 0 0 0 0
17 5 8 5 29 13 74 95 73 76 72 100 1 0 0 0 0 0 0 2 0 0 6 9 5 0 0 0 0 0 0 0 0 0 0 0 0 0 0 0 0 0 0

GFSMW_con_mucape_066.txt.gz
CAPE
162 200 10 0 23 102 7 160 6 9 0 0 0 2 4 0 15 1 1 0 12 35 48 56 72 77 72 67 45 77 22 18 7 15 7 1 0 0 0 0 0 0 0
204 205 10 0 16 92 14 9 6 1 0 3 25 1 4 0 1 4 3 3 9 0 29 37 85 113 105 71 62 18 7 1 2 0 0 0 0 0 0 0 0 0 0
163 207 24 0 2 133 0 3 2 13 1 16 16 0 0 0 3 2 0 0 0 6 16 89 93 88 177 140 118 148 42 36 8 1 0 0 0 0 0 0 0 0 0
50 239 75 1 11 38 7 1 5 5 9 19 1 13 0 0 0 0 2 1 0 3 16 80 84 98 151 176 165 161 166 126 22 5 0 29 114 53 1 9 3 0 0
3 291 130 11 5 22 19 0 1 2 0 9 0 0 0 0 4 3 5 5 0 16 44 97 140 193 119 146 125 126 151 179 106 54 86 62 69 83 57 3 12 6 0
2 79 238 51 6 20 17 5 1 5 2 0 0 0 0 0 0 0 1 1 2 1 22 61 75 82 120 114 93 59 62 142 105 102 143 160 71 82 81 57 36 0 0
4 6 228 121 2 23 42 2 6 11 13 3 0 0 0 4 0 0 8 0 0 2 0 27 46 28 33 109 91 59 57 60 73 83 73 123 126 115 94 67 40 46 9
14 0 160 214 32 10 35 20 0 4 7 0 3 0 0 0 0 3 4 6 1 2 2 2 3 26 30 46 81 52 24 2 0 52 84 89 109 112 129 53 34 45 34
0 0 69 294 124 4 15 12 2 0 5 13 1 4 0 0 0 0 0 13 3 4 4 1 5 20 41 40 14 14 8 1 5 3 63 67 110 101 86 105 73 35 0
7 5 26 378 272 23 14 41 0 0 0 8 8 1 3 4 0 0 0 0 4 4 10 9 18 17 32 37 26 21 2 8 12 21 26 66 54 60 61 40 55 69 43
5 45 67 364 415 202 31 42 15 0 3 0 5 6 3 3 2 0 3 3 0 0 0 1 0 19 38 35 12 0 3 7 4 4 26 38 33 40 40 78 80 53 47
0 59 216 314 469 399 133 47 22 3 7 11 6 0 6 7 44 10 1 2 0 0 0 0 0 1 0 9 13 11 15 15 4 0 14 15 23 31 32 48 52 56 63
7 65 330 334 444 470 425 203 92 21 9 38 17 10 12 19 18 42 7 5 5 0 0 0 0 0 0 0 0 0 0 0 0 0 0 0 2 17 25 37 42 58 74
1 4 64 331 464 502 515 520 341 196 80 9 54 44 24 14 25 28 61 18 47 18 0 0 0 0 0 0 0 0 0 0 0 0 0 3 2 5 15 34 58 89 78
16 9 3 0 16 191 569 524 619 482 282 212 59 50 116 111 86 56 49 55 50 54 42 4 0 1 2 1 0 0 0 0 0 0 0 0 0 11 23 54 74 86 81
0 8 11 8 13 5 13 57 384 519 522 330 266 115 71 151 125 122 167 164 129 62 61 43 36 3 0 7 6 0 1 3 7 3 2 7 11 13 34 80 131 110 74
0 0 1 13 22 0 0 2 2 15 506 494 431 292 173 103 152 150 131 125 105 79 68 59 62 45 55 66 40 44 25 33 63 58 48 28 38 75 95 89 73 62 21
0 0 0 0 0 0 2 18 8 3 8 152 469 426 347 217 152 117 107 124 115 112 102 84 59 69 83 66 80 78 56 44 41 39 38 40 35 45 40 32 54 78 71
0 0 0 0 0 0 0 0 0 2 17 5 15 325 377 300 274 162 127 127 91 98 93 94 72 52 60 42 86 100 84 62 41 49 35 20 38 139 112 103 67 64 80
0 0 0 0 0 0 0 0 0 0 17 9 2 3 104 353 291 261 214 166 115 79 150 77 68 99 124 71 89 71 60 224 84 76 96 39 78 101 68 90 112 85 75
0 0 0 0 0 0 0 0 0 0 0 3 5 17 16 187 408 318 243 231 201 158 153 277 162 158 131 113 94 79 84 61 58 58 86 48 102 103 41 44 70 86 74
0 0 0 0 0 0 0 0 0 0 0 0 0 0 12 35 115 299 335 238 208 214 182 205 159 305 184 181 113 180 165 135 81 52 57 70 45 43 49 33 40 16 21
0 0 0 0 0 0 0 0 0 0 0 2 0 0 0 2 66 178 244 314 347 414 267 193 132 129 60 92 60 64 71 86 13 0 0 6 0 0 0 35 16 0 3
0 0 0 0 0 0 0 0 0 0 0 3 21 76 13 9 2 84 213 251 334 453 381 221 178 229 81 109 122 25 3 1 4 4 3 0 0 2 9 0 0 0 0
0 0 0 0 0 0 0 0 0 0 0 0 1 7 60 103 128 132 71 89 116 150 234 155 91 119 2 11 0 4 4 0 0 0 0 0 0 0 0 0 0 0 0
0 0 0 0 0 0 0 0 0 0 0 0 0 0 0 0 7 31 46 44 49 41 0 0 2 0 0 0 0 0 0 0 0 0 0 0 0 0 0 0 0 0 0

GFSMW_con_mucape_072.txt.gz
CAPE
80 146 103 69 53 0 0 0 1 0 0 0 0 2 0 0 11 24 24 16 28 45 13 0 0 0 0 0 0 0 0 0 0 1 0 3 2 0 0 0 0 0 0
95 173 126 107 97 47 0 0 0 2 1 3 0 7 0 9 13 20 33 52 58 45 38 3 6 14 0 0 10 4 0 1 0 0 0 3 15 43 22 1 0 0 0
122 202 165 149 114 60 8 0 0 0 3 5 0 0 24 2 0 21 36 8 27 26 9 4 9 67 37 21 45 27 16 15 4 2 2 2 3 16 36 36 12 4 0
75 220 192 162 101 65 15 0 0 0 4 4 0 0 0 1 1 27 30 20 10 15 7 4 13 64 70 51 58 66 49 19 0 4 10 1 4 0 2 35 21 15 5
21 134 217 166 94 57 23 0 0 0 0 4 0 0 0 0 9 0 17 22 1 7 25 10 41 44 53 63 52 63 47 26 25 2 3 7 0 0 0 0 0 0 0
16 77 137 136 100 63 26 0 0 0 0 1 0 0 0 0 0 2 0 3 6 17 9 23 19 37 31 49 42 30 14 20 59 41 23 2 0 5 45 28 17 15 9
5 24 83 105 97 81 37 0 0 0 0 0 4 0 0 0 0 0 0 0 1 2 1 3 3 18 13 3 5 0 0 8 55 62 19 19 0 0 5 25 28 25 32
0 18 79 97 102 79 38 0 0 0 0 0 2 0 0 0 0 0 0 0 0 0 7 8 6 7 20 1 6 22 11 48 63 72 65 59 60 63 55 41 53 3 18
0 13 82 120 133 105 54 12 0 0 0 0 1 1 3 0 0 0 0 0 5 10 3 2 17 13 13 25 24 69 77 63 79 75 83 81 61 57 50 46 27 4 0
16 20 108 173 164 121 73 32 0 0 0 0 0 0 2 4 0 0 0 0 0 0 7 21 22 15 3 30 40 27 35 48 51 57 58 27 4 5 3 52 17 0 46
7 71 148 210 192 167 117 68 3 0 0 0 1 0 0 2 2 0 0 0 0 0 0 12 15 11 17 18 7 17 15 17 22 38 42 10 0 0 0 0 36 4 4
0 68 139 151 183 186 165 145 116 17 0 0 0 0 0 0 2 2 0 0 1 0 0 0 1 6 5 12 16 18 20 17 15 9 5 10 0 0 1 1 3 10 0
33 60 154 180 181 125 181 160 149 99 73 18 0 0 0 0 0 0 0 1 0 0 0 0 0 0 0 0 2 7 1 0 3 5 4 3 3 0 2 1 0 0 0
166 223 178 174 224 212 202 176 172 129 121 103 118 85 74 50 17 0 0 0 3 3 3 5 1 0 0 0 0 0 0 0 0 0 0 0 0 0 0 2 0 0 0
11 39 78 119 199 182 166 95 114 127 145 119 133 111 110 71 88 65 52 8 0 1 3 4 4 3 2 0 0 0 0 0 0 0 0 0 0 0 0 0 0 0 0
1 22 5 24 15 7 22 36 17 47 74 102 105 99 87 94 78 86 81 85 76 43 8 1 7 22 12 1 0 0 6 7 2 0 0 0 0 0 0 0 1 3 8
0 0 0 0 0 0 1 4 0 4 13 24 43 84 121 105 79 97 100 112 129 106 101 102 59 29 26 29 6 5 4 22 61 18 5 2 7 12 9 5 8 12 8
0 0 0 0 2 0 0 0 1 2 0 0 0 0 2 51 117 161 173 114 123 131 133 136 100 90 103 88 81 59 42 33 130 115 115 47 43 59 34 52 34 36 19
0 0 0 0 0 0 0 0 0 0 0 0 0 0 0 0 0 25 84 176 177 158 153 150 139 116 142 96 125 130 114 94 110 82 46 76 50 48 64 83 91 87 97
0 0 0 0 0 0 0 0 0 0 0 0 0 0 0 0 0 0 0 0 7 153 232 132 153 159 169 157 182 193 230 252 196 157 96 56 72 104 79 95 104 134 115
0 0 0 0 0 0 0 0 0 0 0 0 0 0 0 0 0 0 0 0 0 17 117 170 167 225 189 259 183 167 215 224 232 197 178 112 121 121 128 132 129 104 127
0 0 0 0 0 0 0 0 0 0 0 0 0 0 0 0 0 0 0 0 0 0 49 160 195 248 207 184 254 240 243 248 263 215 184 165 134 62 81 124 134 112 48
0 0 0 0 0 0 0 0 0 0 0 0 0 0 0 0 0 0 0 0 0 0 4 20 151 134 203 32 107 173 105 182 185 203 146 91 34 66 41 61 43 45 1
0 0 0 0 0 0 0 0 0 0 0 0 0 0 0 0 0 0 0 0 0 0 14 13 55 55 119 15 54 0 0 15 16 0 0 0 0 0 0 0 0 0 0
0 0 0 0 0 0 0 0 0 0 0 0 0 0 0 0 0 0 0 0 0 0 0 0 2 16 3 0 0 0 0 0 0 0 0 0 0 0 0 0 0 0 0
0 0 0 0 0 0 0 0 0 0 0 0 0 0 0 0 0 0 0 0 0 0 0 0 0 0 0 0 0 0 0 0 0 0 0 0 0 0 0 0 0 0 0

GFSMW_con_mucape_075.txt.gz
CAPE
2 115 114 90 75 44 63 30 1 0 3 0 4 9 0 3 28 10 0 12 49 91 81 27 0 0 0 0 0 0 0 0 0 0 0 4 0 0 6 0 0 0 0
0 14 109 94 70 66 58 19 0 0 0 0 0 2 6 87 61 55 40 48 50 19 21 4 0 0 0 0 0 0 0 0 0 0 1 0 3 7 8 6 7 6 0
0 21 112 100 85 79 82 49 0 0 0 0 2 1 2 53 49 63 60 65 14 14 37 6 0 0 0 0 0 0 0 0 1 0 0 6 5 21 15 7 12 34 22
0 40 109 112 118 107 115 78 3 0 0 0 1 0 0 0 43 42 34 56 78 30 27 33 7 18 1 6 4 14 12 5 11 0 0 17 11 31 40 26 10 35 40
0 13 121 155 128 127 123 94 22 0 0 0 0 0 0 0 0 4 0 48 45 45 43 55 2 24 2 7 50 82 52 57 47 10 11 16 4 14 15 40 29 16 20
0 4 85 151 153 142 132 92 31 2 0 0 0 0 1 0 0 3 4 10 2 20 34 22 9 11 5 38 25 97 93 104 61 45 37 19 10 10 7 0 0 0 21
0 0 40 108 137 166 138 94 30 1 0 0 0 0 0 0 0 1 0 3 21 9 35 19 11 9 10 15 44 59 87 81 51 26 28 38 37 28 46 3 0 23 28
0 0 9 74 125 187 154 100 35 0 0 0 0 0 0 0 0 0 0 0 0 17 5 6 14 10 8 7 40 47 55 31 33 13 9 26 53 34 36 17 24 3 1
0 0 5 54 105 224 159 108 39 0 0 2 1 0 0 0 0 0 0 7 8 1 4 19 10 14 40 26 15 22 15 21 27 114 2 3 0 46 49 58 65 6 0
0 0 7 54 121 228 148 118 48 0 0 1 4 0 0 0 0 0 0 0 0 0 0 8 10 13 27 19 16 14 17 29 2 0 0 5 38 51 71 84 83 63 46
2 1 9 46 122 159 148 112 59 18 0 0 2 3 0 0 0 0 0 0 0 0 0 9 4 18 28 14 17 20 10 1 0 19 16 30 47 65 77 75 52 35 0
7 6 12 55 119 165 136 157 103 30 0 0 0 4 0 0 0 1 0 0 0 0 0 0 3 1 0 5 6 12 13 20 11 7 37 40 51 63 72 53 33 21 0
71 49 31 87 130 142 115 122 90 85 21 1 0 0 0 0 0 1 3 0 0 0 0 0 0 0 0 4 3 12 11 16 13 4 18 21 26 12 12 11 21 12 10
102 159 166 168 143 132 104 138 149 121 103 88 87 85 61 57 41 18 5 0 0 1 1 1 0 0 0 0 0 0 0 2 4 6 5 5 5 13 5 11 4 0 8
156 170 174 186 131 93 109 103 94 90 96 103 103 95 98 100 113 95 85 80 59 39 18 2 2 6 4 5 0 0 0 0 0 0 0 0 0 1 1 4 1 5 5
11 30 55 47 73 74 28 60 43 21 36 46 57 77 76 83 88 92 70 87 82 96 88 83 69 50 21 1 2 2 0 0 0 0 0 0 0 0 0 0 0 0 2
1 12 54 50 36 0 0 10 13 2 0 0 1 6 17 43 74 93 93 105 86 79 76 83 81 108 112 95 62 57 12 7 7 2 1 10 13 1 1 16 22 16 6
0 0 0 0 0 0 0 0 0 0 0 0 0 0 0 0 0 0 1 8 27 37 103 119 83 59 74 55 90 85 87 155 74 32 14 49 49 53 32 64 17 38 42
0 0 0 0 0 0 0 0 0 0 0 0 0 0 0 0 0 0 0 0 9 29 58 58 46 51 51 44 57 85 128 150 144 290 210 81 105 97 64 52 24 16 16
0 0 0 0 0 0 0 0 0 0 0 0 0 0 0 0 0 0 0 0 0 0 0 0 30 82 90 80 107 122 193 262 185 182 159 61 69 113 69 128 138 68 59
7 0 0 0 0 0 0 0 0 0 0 0 0 0 0 0 0 0 0 0 0 0 0 0 0 6 13 40 143 166 169 194 240 207 130 40 19 48 50 10 32 59 56
0 0 0 0 0 0 0 0 0 0 0 0 0 0 0 0 0 0 0 0 0 0 0 2 2 8 12 23 48 65 104 159 219 176 184 33 6 37 31 26 12 4 46
0 0 0 0 0 0 0 0 0 0 0 0 0 0 0 0 0 0 0 0 0 0 0 0 2 6 11 13 25 55 36 52 97 128 29 10 1 5 0 0 4 0 0
0 0 0 0 0 0 0 0 0 0 0 0 0 0 0 0 0 0 0 0 0 0 0 0 0 0 0 1 10 8 6 1 0 0 0 0 0 0 0 0 0 0 0
0 0 0 0 0 0 0 0 0 0 0 0 0 0 0 0 0 0 0 0 0 0 0 0 0 0 0 0 0 0 0 0 0 0 0 0 0 0 0 0 0 0 0
0 0 0 0 0 0 0 0 0 0 0 0 0 0 0 0 0 0 0 0 0 0 0 0 0 0 0 0 0 0 0 0 0 0 0 0 0 0 0 0 0 0 0

GFSMW_con_mucape_078.txt.gz
CAPE
0 6 126 322 313 540 302 81 122 71 3 1 3 0 8 6 4 8 32 4 7 1 46 54 70 67 17 20 0 0 0 0 0 0 2 4 0 0 0 0 0 0 0
0 0 66 194 341 445 137 73 62 53 18 5 5 0 8 1 6 31 19 14 16 20 7 5 41 104 23 9 0 0 0 0 2 8 5 2 5 0 0 0 0 0 0
0 0 25 109 259 245 107 77 78 57 0 2 28 4 4 6 42 39 26 7 19 8 6 65 65 50 0 0 0 0 0 0 6 10 1 1 1 0 0 0 3 2 0
0 0 15 70 151 144 92 86 102 46 0 0 1 1 1 6 52 116 29 7 25 8 8 4 1 16 0 0 0 2 0 1 0 2 9 8 15 19 4 9 19 23 18
0 6 14 84 107 102 96 96 113 72 1 1 0 0 0 0 23 63 59 74 13 3 4 0 0 6 0 0 6 9 5 15 27 29 44 54 43 44 19 12 28 53 46
0 0 20 69 89 96 96 110 127 82 3 5 2 0 0 1 0 7 36 26 27 46 29 23 4 0 0 10 26 19 31 44 47 55 92 81 62 46 49 17 40 51 66
0 0 19 62 54 90 101 114 132 89 4 2 6 0 0 0 0 0 0 2 8 29 19 17 10 2 0 5 2 0 15 66 87 85 77 82 65 72 53 36 20 14 11
0 0 1 6 34 66 127 128 147 93 3 2 4 0 0 0 0 0 0 2 1 9 9 14 11 26 0 3 0 1 0 52 50 63 49 48 60 39 36 51 55 59 17
0 0 0 25 26 55 146 156 153 95 2 4 4 0 0 0 0 0 0 0 0 4 31 14 5 7 11 23 17 2 0 21 28 44 33 46 35 2 11 23 42 71 0
0 0 0 7 24 50 100 140 145 75 0 2 2 3 3 0 0 0 0 0 0 0 1 8 10 10 30 21 15 4 6 28 7 34 67 23 7 2 7 8 0 13 0
5 0 0 8 34 42 75 147 121 60 1 0 0 4 5 4 0 0 0 0 0 1 3 0 14 16 22 30 34 48 14 4 22 13 13 21 25 34 23 10 0 0 1
4 0 0 14 48 42 70 187 101 37 0 0 0 3 2 3 0 0 0 0 0 0 0 0 0 10 10 28 17 12 15 25 33 19 9 23 0 0 0 0 0 0 25
9 12 2 24 16 38 107 158 132 46 0 0 0 3 1 2 0 0 0 0 0 0 0 0 0 0 0 0 7 11 14 23 10 13 16 22 19 15 25 19 26 8 11
70 29 16 23 50 68 119 115 142 95 76 64 43 45 42 38 34 21 6 0 0 0 0 0 0 0 0 0 0 0 0 4 4 2 5 17 14 8 13 29 11 19 15
67 75 68 69 89 104 145 125 122 118 75 69 73 98 104 104 95 86 79 69 53 28 20 4 0 0 6 3 7 5 7 0 0 0 0 0 1 1 5 11 10 12 10
98 113 135 110 98 130 141 67 58 34 18 50 65 84 106 89 64 75 80 77 73 84 55 32 23 24 95 24 5 1 0 0 4 10 0 0 0 0 2 1 4 8 10
23 47 17 19 49 58 49 37 49 1 0 6 4 4 2 11 11 18 47 63 52 68 86 68 81 77 17 5 14 18 25 39 80 45 12 10 8 22 9 5 4 18 48
5 23 35 33 0 0 0 2 13 12 17 7 2 0 0 0 1 4 1 0 0 3 7 7 15 27 4 6 10 13 23 51 55 132 151 59 50 30 19 10 5 33 8
0 0 0 0 0 0 0 0 0 0 0 0 0 0 0 0 0 0 0 0 0 0 0 5 41 84 21 30 9 19 31 50 50 28 28 56 21 32 88 106 130 116 61
0 0 0 0 0 0 0 0 0 0 0 0 0 0 0 0 0 0 0 0 0 0 0 0 0 2 0 9 11 2 13 59 76 110 107 57 15 24 28 9 1 17 5
0 0 0 0 0 0 0 0 0 0 0 0 0 0 0 0 0 0 0 0 0 0 0 0 0 4 3 3 2 3 7 9 63 69 73 98 94 71 31 12 0 21 0
0 0 0 0 0 0 0 0 0 0 0 0 0 0 0 0 0 0 0 0 0 0 0 0 0 0 0 2 4 6 6 4 15 12 41 42 22 15 14 1 2 0 0
0 0 0 0 0 0 0 0 0 0 0 0 0 0 0 0 0 0 0 0 0 0 0 0 0 0 0 0 0 0 0 0 0 0 0 0 0 0 0 0 0 0 0
0 0 0 0 0 0 0 0 0 0 0 0 0 0 0 0 0 0 0 0 0 0 0 0 0 0 0 0 0 0 0 0 0 0 0 0 0 0 0 0 0 0 0
0 0 0 0 0 0 0 0 0 0 0 0 0 0 0 0 0 0 0 0 0 0 0 0 0 0 0 0 0 0 0 0 0 0 0 0 0 0 0 0 0 0 0
0 0 0 0 0 0 0 0 0 0 0 0 0 0 0 0 0 0 0 0 0 0 0 0 0 0 0 0 0 0 0 0 0 0 0 0 0 0 0 0 0 0 0

GFSMW_con_mucape_084.txt.gz
CAPE
0 0 0 0 696 1201 1656 1678 1373 1436 796 335 372 251 310 153 176 47 243 70 38 177 95 74 72 59 62 28 33 165 175 145 144 87 72 49 9 37 20 18 35 31 29
0 0 0 8 745 1148 1579 1567 1250 1135 787 526 300 140 50 90 128 69 247 207 109 143 67 50 54 58 28 46 18 125 149 152 134 84 56 32 32 17 27 20 31 36 33
0 0 0 0 701 994 1498 1209 1022 1094 508 461 213 159 91 24 37 109 232 121 75 56 36 38 20 12 41 20 14 109 157 150 151 149 60 25 27 42 53 46 24 26 24
0 0 0 0 520 882 1342 970 965 1000 382 299 193 112 33 15 80 66 23 89 5 18 19 3 8 9 22 38 27 24 137 126 133 134 97 47 26 62 69 91 74 43 16
0 0 0 0 342 789 1312 912 606 655 298 143 247 73 58 45 100 40 28 6 0 6 1 16 30 20 16 15 34 43 174 169 159 77 117 129 123 100 75 75 89 94 78
27 1 0 0 223 738 1210 669 772 390 229 226 261 81 70 57 43 41 3 15 4 3 6 6 12 9 24 29 4 71 128 100 153 101 162 117 112 100 115 93 119 117 139
400 323 124 181 362 900 745 733 534 371 161 466 163 27 54 41 18 28 2 4 4 6 9 1 0 10 14 30 43 48 34 68 138 139 170 48 75 99 111 107 70 71 128
405 457 158 349 457 851 482 346 298 322 137 279 57 7 14 24 19 3 10 9 13 11 11 3 9 32 32 53 31 0 4 50 126 109 139 138 118 128 137 77 39 11 89
16 554 166 483 518 668 303 442 275 230 121 122 5 8 12 14 7 1 4 33 51 47 6 0 0 2 30 9 4 1 5 1 64 167 177 111 120 87 89 74 68 60 0
16 160 252 412 603 366 94 417 418 169 123 114 2 3 8 11 6 5 25 26 30 27 24 4 13 0 8 4 1 1 0 0 0 0 0 17 67 91 95 91 61 58 0
140 240 322 321 322 306 183 484 208 144 150 92 3 5 6 7 10 2 0 21 28 7 31 2 6 3 0 1 9 3 3 6 3 0 1 2 1 17 4 28 13 0 0
169 162 97 231 144 50 256 416 103 153 171 43 0 5 18 14 4 0 11 29 33 31 31 19 0 1 16 2 6 1 4 13 1 3 0 0 4 0 0 0 0 0 0
306 229 109 86 60 66 127 358 81 136 144 43 14 12 16 1 3 9 30 19 0 13 21 22 38 10 2 4 17 10 6 14 4 1 2 7 0 2 4 0 0 1 3
79 72 171 80 101 107 131 151 340 198 114 45 14 5 3 3 5 4 25 7 4 3 5 3 6 6 10 7 17 13 29 20 26 7 12 16 13 0 4 4 6 15 18
64 96 83 77 112 141 211 370 285 181 108 59 24 3 3 3 4 10 18 31 30 24 23 17 1 4 0 0 0 0 0 6 14 6 54 69 40 47 50 37 38 91 73
83 169 40 119 151 265 283 587 140 142 104 46 18 1 3 2 3 0 4 12 4 7 0 0 4 0 0 0 0 0 1 32 7 15 11 12 15 5 11 6 1 9 11
101 148 57 156 184 191 346 279 178 113 115 50 21 19 22 28 38 50 64 54 38 35 72 19 9 4 2 2 0 0 1 5 2 6 9 9 6 5 18 34 33 23 19
1 108 83 191 93 180 131 217 211 168 125 69 76 74 62 32 34 66 44 76 102 45 96 66 52 56 89 43 47 35 34 22 24 32 27 30 51 67 115 150 128 129 59
0 0 5 75 134 185 198 192 146 190 48 23 15 8 6 0 2 2 6 9 10 20 26 5 2 6 7 12 2 2 9 25 42 34 45 48 58 71 103 32 86 57 48
0 0 0 0 2 0 0 49 0 7 0 1 0 0 0 0 0 0 2 1 5 0 0 0 0 0 0 2 2 1 2 4 3 5 14 15 14 13 22 24 20 56 45
0 0 0 0 0 0 0 7 1 0 0 0 0 0 0 0 0 0 0 0 0 0 0 0 0 0 0 0 0 0 0 0 0 1 2 1 1 1 0 3 1 3 2
0 0 0 0 0 0 2 5 0 0 0 0 0 0 0 0 0 0 0 0 0 0 0 0 0 0 0 0 0 0 0 0 0 0 0 0 0 0 0 0 0 0 0
0 0 0 0 0 0 0 0 0 0 0 0 0 0 0 0 0 0 0 0 0 0 0 0 0 0 0 0 0 0 0 0 0 0 0 0 0 0 0 0 0 0 0
0 0 0 0 0 0 0 0 0 0 0 0 0 0 0 0 0 0 0 0 0 0 0 0 0 0 0 0 0 0 0 0 0 0 0 0 0 0 0 0 0 0 0
0 0 0 0 0 0 0 0 0 0 0 0 0 0 0 0 0 0 0 0 0 0 0 0 0 0 0 0 0 0 0 0 0 0 0 0 0 0 0 0 0 0 0
0 0 0 0 0 0 0 0 0 0 0 0 0 0 0 0 0 0 0 0 0 0 0 0 0 0 0 0 0 0 0 0 0 0 0 0 0 0 0 0 0 0 0

GFSMW_con_mucape_090.txt.gz
CAPE
0 0 0 0 0 0 0 2598 2485 2271 2188 2098 1821 1519 1103 810 739 766 787 717 722 512 377 304 267 250 120 85 59 45 33 38 76 29 32 39 14 3 0 23 8 1 0
0 0 0 0 0 0 190 2456 2551 2170 2076 2140 1751 1260 968 722 490 569 499 697 598 323 236 196 235 278 128 95 55 77 22 43 34 3 0 0 34 41 21 20 20 14 2
0 0 0 0 0 105 1428 2256 2460 2034 2028 1941 1614 1107 829 728 622 445 367 514 562 291 197 134 226 297 94 95 70 53 44 0 42 45 0 0 0 29 23 23 9 16 25
0 0 0 0 0 259 1354 1891 2364 1944 2012 1729 1382 1038 763 519 469 324 249 315 353 155 85 87 108 74 103 128 81 56 39 19 24 36 31 16 1 1 14 23 15 13 15
5 0 0 0 0 221 1223 1540 2173 1928 1879 1662 1514 1109 788 527 350 390 341 361 458 191 142 183 131 75 54 73 79 53 73 27 10 0 0 23 60 5 0 0 5 6 6
37 105 136 26 0 163 1036 1521 2010 1838 1848 1576 1536 1067 858 509 341 282 304 152 43 142 70 1 38 87 55 41 34 64 49 21 15 16 21 11 46 32 43 33 8 0 0
5 11 83 230 171 68 1056 1594 1878 1747 1778 1523 1381 1075 916 616 407 353 207 65 80 13 0 2 0 1 7 10 32 35 32 26 19 12 4 69 80 137 95 90 40 35 36
0 0 63 133 74 533 1532 1725 1714 1555 1564 1462 1251 1099 758 380 291 302 98 34 2 0 0 0 8 23 1 23 6 32 21 32 6 19 42 63 86 129 75 74 46 54 49
0 0 0 43 278 815 1631 1759 1361 1454 1407 1223 1191 1103 604 286 234 261 69 50 23 0 0 0 0 0 1 17 9 7 8 15 38 8 44 83 94 129 138 130 100 39 12
0 0 76 199 876 1100 997 1075 1111 1040 1026 1237 1228 828 472 199 210 164 46 60 53 0 5 0 0 1 2 0 0 19 33 7 21 36 44 62 60 81 75 75 94 93 76
0 2 33 472 607 688 758 999 805 761 703 904 1163 839 305 180 86 143 133 100 61 15 3 3 2 0 6 2 4 9 28 18 28 9 29 0 15 64 14 46 72 64 76
0 0 83 124 278 420 439 946 489 594 788 1032 1071 539 217 78 165 153 84 48 57 25 13 2 4 1 7 1 7 22 29 21 12 24 0 1 0 0 0 3 3 53 44
0 0 7 229 280 369 303 305 362 599 898 906 644 303 208 157 152 49 49 142 37 13 14 21 1 8 4 12 6 7 2 0 0 0 0 0 0 1 1 1 2 7 23
0 0 4 127 239 405 534 644 554 581 425 961 338 216 106 89 159 111 73 8 9 10 12 21 5 6 7 10 7 2 8 5 4 7 8 7 8 7 12 0 0 13 8
0 0 3 63 147 257 30 378 453 366 297 585 259 176 33 43 68 55 29 30 15 2 6 6 3 2 2 5 9 1 4 9 5 7 14 14 2 2 2 4 13 24 15
0 0 1 63 97 366 257 228 180 196 216 448 332 212 38 32 21 19 29 16 3 5 4 3 2 5 4 3 2 2 5 4 2 5 8 25 11 12 8 4 3 22 20
0 0 4 42 56 97 267 177 128 161 237 475 218 160 65 55 29 6 4 5 3 4 1 1 6 7 7 3 1 1 5 10 9 6 18 21 19 9 26 17 17 15 24
0 0 0 8 75 98 147 166 119 125 46 164 160 235 93 22 9 10 7 5 4 3 5 3 1 2 2 3 2 2 2 6 8 12 13 10 12 13 24 15 12 13 20
0 0 0 0 71 78 31 124 108 151 114 128 197 173 148 48 10 12 11 9 7 8 0 6 9 18 30 26 22 24 18 14 23 9 17 33 25 45 33 33 33 28 1
0 0 0 0 0 0 0 27 87 20 64 67 0 5 11 40 12 12 22 14 15 24 38 90 80 88 106 100 67 33 33 38 30 35 26 23 21 32 50 40 42 50 25
0 0 0 0 0 0 0 0 0 0 0 0 0 0 1 2 13 18 16 20 3 34 29 55 18 1 17 18 1 0 2 2 2 2 0 1 0 0 0 0 0 0 0
0 0 0 0 0 0 0 0 0 0 0 0 0 0 0 0 0 0 0 0 0 0 0 0 0 2 0 0 0 0 0 0 0 0 0 0 0 0 0 0 0 0 0
0 0 0 0 0 0 0 0 0 0 0 0 0 0 0 0 0 0 0 3 1 0 0 0 0 0 0 0 0 0 0 0 0 0 0 0 0 0 0 0 0 0 0
0 0 0 0 0 0 0 0 0 0 0 0 0 0 0 0 0 0 0 0 0 0 0 4 5 1 0 0 0 0 0 0 0 0 0 0 0 0 0 0 0 0 0
0 0 0 0 0 0 0 0 0 0 0 0 0 1 1 4 0 0 0 0 0 0 0 1 0 0 0 0 0 0 0 0 0 0 0 0 0 0 0 0 0 0 0
0 0 0 0 0 0 0 0 0 0 0 0 0 0 0 0 0 0 0 0 0 0 0 0 0 0 0 0 0 0 0 0 0 0 0 0 0 0 0 0 0 0 0

GFSMW_con_mucape_093.txt.gz
CAPE
0 0 0 0 0 0 0 1675 2028 2175 2131 2034 1772 1762 1772 1506 1022 991 839 687 786 880 739 516 375 395 251 165 97 20 27 45 36 38 30 48 21 18 6 0 0 0 0
0 0 0 0 0 0 0 1702 2098 2146 2100 1804 1939 1950 1703 1402 857 888 703 1092 785 784 675 456 338 282 204 146 66 23 49 67 47 51 8 12 7 1 0 0 3 0 0
0 0 0 0 0 0 17 1868 2111 2215 2103 1891 1848 1686 1486 1217 677 501 412 963 534 634 499 439 389 323 220 136 99 97 86 51 29 32 8 0 0 0 0 1 11 2 0
44 2 0 0 0 0 1235 1854 2045 2126 2048 1913 1870 1681 1498 1298 636 394 250 251 706 651 313 300 228 212 211 201 150 102 50 35 29 22 45 2 0 0 0 16 17 9 12
82 79 65 57 0 23 2000 2037 2038 1976 1893 1892 1731 1526 1511 1067 550 390 306 216 205 184 294 255 205 163 140 115 124 102 73 42 18 6 15 0 0 0 0 0 0 15 8
107 130 127 114 78 20 1897 2132 1979 1904 1862 1734 1551 1448 1231 705 534 383 276 263 265 257 231 185 324 68 170 89 137 105 82 51 22 6 10 32 3 0 0 0 0 0 0
91 87 100 149 117 55 295 1868 1987 1889 1874 1788 1450 1391 1096 958 497 295 371 367 381 202 103 150 77 95 75 31 38 86 85 58 51 5 0 1 1 1 29 38 14 5 1
59 19 49 98 170 632 400 1243 1711 1871 1738 1833 1640 1364 1493 1017 521 371 236 187 46 20 38 10 3 3 4 88 51 59 42 51 16 26 4 16 1 24 58 53 72 72 46
0 6 33 87 369 740 1020 1396 1671 1545 1502 1501 1322 1233 1127 809 507 375 234 87 33 52 0 0 0 0 0 0 1 34 23 38 17 23 15 16 24 76 65 70 71 70 64
1 5 35 103 378 454 917 812 951 1132 1241 1182 1146 1018 1041 827 638 369 199 86 55 6 0 2 0 0 0 1 3 44 32 49 17 29 28 4 23 55 66 70 40 35 55
0 0 6 137 226 297 298 310 343 380 691 981 1109 1119 1242 838 514 277 166 60 71 25 2 1 0 0 9 7 10 9 14 35 23 28 22 0 44 10 36 56 56 56 44
0 0 3 39 177 183 287 237 369 553 494 829 968 1189 884 947 427 210 130 105 70 30 19 2 4 0 1 11 7 1 0 12 1 6 25 35 5 10 3 2 0 24 32
0 0 3 3 75 49 17 55 353 301 579 715 967 873 1023 783 213 279 217 247 129 66 24 6 3 1 4 13 13 18 0 1 10 21 0 35 28 46 18 5 0 39 33
0 0 0 7 22 114 17 269 111 336 435 658 680 814 828 352 131 218 70 161 76 47 23 4 4 3 8 7 11 16 7 18 10 5 10 9 3 1 0 0 0 0 0
0 0 0 5 6 44 148 254 314 418 526 618 549 673 310 116 34 99 38 52 111 38 30 4 9 3 5 8 11 10 14 5 2 1 0 0 2 4 2 8 5 61 0
0 0 0 0 15 43 90 127 285 332 547 414 454 423 141 139 5 8 15 47 47 23 3 5 5 7 5 2 0 8 23 5 55 0 5 1 12 6 1 11 10 1 2
0 0 0 0 18 28 78 171 267 344 320 328 202 105 185 145 55 4 9 9 34 22 10 3 4 5 5 4 4 6 1 3 4 3 9 2 6 9 3 3 18 25 14
0 0 0 0 9 7 116 98 152 103 80 232 132 145 49 119 130 49 5 78 38 6 6 7 5 5 4 4 1 3 5 4 13 15 17 14 24 6 3 0 15 12 8
0 0 0 0 0 0 59 90 72 64 37 41 37 164 45 30 73 101 5 10 15 11 12 4 5 5 7 2 3 9 9 15 10 13 14 13 11 16 7 10 14 4 8
0 0 0 0 0 0 0 0 45 54 15 36 45 10 23 0 23 25 2 16 13 8 10 8 15 7 6 13 8 25 24 16 6 12 22 12 6 2 7 0 4 1 13
0 0 0 0 0 0 0 0 0 0 3 6 0 0 0 0 0 1 2 7 32 38 14 14 18 33 45 42 46 11 0 30 35 7 0 1 4 8 12 10 12 8 1
0 0 0 0 0 0 0 0 0 0 0 0 0 0 0 0 0 0 0 0 0 10 12 23 18 0 0 8 2 0 0 0 0 0 3 2 0 0 0 0 0 0 0
0 0 0 0 0 0 0 0 0 0 0 0 0 0 0 0 0 0 0 0 0 0 0 0 0 0 0 0 0 0 0 0 0 0 0 0 0 0 0 0 0 0 0
0 0 0 0 0 0 0 0 0 0 0 0 0 0 0 0 0 0 0 0 0 0 0 0 0 0 0 0 0 0 0 0 0 0 0 0 0 0 0 0 0 0 0
0 0 0 0 0 0 0 0 0 0 0 0 0 0 0 0 0 0 0 0 0 0 0 0 0 0 0 0 0 0 0 0 0 0 0 0 0 0 0 0 0 0 0
0 0 0 0 0 0 0 0 0 0 0 0 0 0 0 0 0 0 0 0 0 0 0 0 0 0 0 0 0 0 0 0 0 0 0 0 0 0 0 0 0 0 0

GFSMW_con_mucape_099.txt.gz
CAPE
0 0 0 0 0 0 0 0 1418 2040 2127 2287 2353 2149 1834 1712 1560 1709 1580 1656 1615 1540 1422 1242 1103 1036 971 988 620 357 318 136 125 79 18 13 16 42 40 45 55 43 24
0 0 0 0 0 0 0 0 1005 1833 1959 1956 2033 1898 1876 1570 1332 1588 1689 1789 1639 1455 1255 1129 1075 999 884 1038 745 330 167 149 108 47 43 15 6 25 34 50 44 32 6
0 0 0 0 0 0 0 0 816 1741 1924 1913 1808 1793 1579 1418 1423 1608 1553 1607 1390 1303 1097 758 923 920 1089 781 680 358 218 115 57 56 52 38 14 5 0 19 35 10 3
0 1 2 3 0 0 0 0 577 1750 1911 1931 1651 1502 1574 1314 1246 1210 1250 1265 883 963 587 611 870 652 780 704 782 387 281 192 132 67 56 20 1 2 0 7 27 3 1
57 79 59 66 135 185 74 317 115 1508 1789 1919 1732 1623 1582 1241 1000 976 1061 856 659 700 489 308 996 410 506 734 538 490 372 135 71 62 68 29 6 0 4 0 23 2 9
33 16 10 22 80 396 261 892 627 1398 1777 1912 1769 1502 1402 1383 1008 875 949 817 559 302 341 775 558 699 344 426 498 543 150 100 85 72 61 61 26 3 2 13 0 5 7
40 13 0 0 45 161 330 929 1349 1713 1877 1844 1722 1557 1416 1365 1021 1017 1018 813 535 261 213 341 269 292 459 427 311 126 75 100 55 53 111 48 26 16 18 0 0 0 0
0 0 0 0 26 60 267 349 1522 1907 1895 1708 1579 1360 1388 1447 1224 1185 968 818 483 239 74 105 197 103 331 357 145 109 73 34 51 57 85 40 41 24 8 34 7 0 0
0 0 0 0 14 122 120 247 1033 1888 1815 1436 1364 1325 1229 1194 1168 995 931 994 492 196 76 59 71 234 227 109 103 67 42 50 51 131 37 44 42 41 32 9 3 0 0
0 0 0 1 65 170 102 127 547 1399 1354 1222 1017 977 750 751 831 960 1025 628 308 150 100 125 148 202 99 17 14 20 12 39 36 30 49 38 36 40 25 5 12 13 1
0 0 0 6 25 134 105 94 170 302 548 519 529 598 454 436 712 755 606 394 177 178 228 178 88 8 9 0 2 0 0 6 28 25 11 13 20 25 11 18 14 35 1
0 0 0 0 16 105 64 132 175 197 145 112 150 175 164 81 540 558 490 209 270 257 71 30 36 0 7 2 2 0 2 10 4 11 37 17 9 43 23 8 16 32 1
0 0 0 0 5 6 27 60 128 121 82 54 37 26 13 7 322 384 280 429 318 99 50 25 16 3 2 6 3 0 9 20 7 1 0 12 14 6 4 16 20 1 1
0 0 0 0 0 5 2 4 49 49 220 233 94 53 98 161 190 179 353 348 103 85 59 6 8 3 24 0 0 0 0 10 7 12 42 18 3 37 27 13 12 0 0
0 0 0 0 0 3 8 2 4 19 10 89 165 130 64 70 176 149 233 108 103 144 22 5 19 3 20 5 9 11 11 13 6 2 5 40 14 50 38 2 4 0 3
0 0 0 0 0 0 11 18 20 9 129 35 46 207 301 241 191 153 225 179 189 133 22 6 3 2 16 12 13 24 25 30 27 17 7 21 15 31 0 11 7 14 0
0 0 0 0 0 0 18 28 16 49 10 14 40 36 121 153 205 229 221 299 19 31 0 11 9 4 4 15 15 14 8 14 20 2 9 5 12 20 20 23 15 45 31
0 0 0 0 0 2 20 11 5 8 15 38 10 25 115 38 71 156 133 170 13 14 4 15 15 1 4 7 7 19 18 12 15 5 30 17 10 4 91 3 12 5 22
0 0 0 0 0 0 0 0 0 2 9 2 19 0 0 15 13 29 30 24 9 19 17 2 0 1 0 4 0 18 25 24 7 9 11 33 14 8 4 11 4 2 4
0 0 0 0 0 0 0 0 0 0 11 9 0 6 14 1 0 5 11 10 0 0 0 19 0 1 0 7 14 8 26 27 6 9 18 15 17 13 13 11 6 18 0
0 0 0 0 0 0 0 0 0 0 0 0 0 0 0 1 0 0 0 2 0 0 0 0 1 0 2 15 14 15 5 28 18 15 17 14 14 17 21 18 9 7 5
0 0 0 0 0 0 0 0 0 0 0 0 0 0 0 0 0 0 0 0 0 0 0 0 0 0 1 0 4 0 9 4 3 5 15 14 17 2 0 2 0 4 2
0 0 0 0 0 0 0 0 0 0 0 0 0 0 0 0 0 0 0 0 0 0 0 0 0 0 0 0 0 0 0 0 0 0 0 0 0 0 0 0 0 0 0
0 0 0 0 0 0 0 0 0 0 0 0 0 0 0 0 0 0 0 0 0 0 0 0 0 0 0 0 0 0 0 0 0 0 0 0 0 0 0 0 0 0 0
0 0 0 0 0 0 0 0 0 0 0 0 0 0 0 0 0 0 0 0 0 0 0 0 0 0 0 0 0 0 0 0 0 0 0 0 0 0 0 0 0 0 0
0 0 0 0 0 0 0 0 0 0 0 0 0 0 0 0 0 0 0 0 0 0 0 0 0 0 0 0 0 0 0 0 0 0 0 0 0 0 0 0 0 0 0